Stations météo

Publicité
Solenzara, France (7765): Température de l'air & dewpoint: 21.05.2019 06:00:00 - 27.05.2019 06:00:00 (CEST)Solenzara, France (7765): Température de l'air 5cm: 21.05.2019 06:00:00 - 27.05.2019 06:00:00 (CEST)Solenzara, France (7765): Température de l'air -20cm: 21.05.2019 06:00:00 - 27.05.2019 06:00:00 (CEST)Solenzara, France (7765): Vitesse du vent & gusts: 21.05.2019 06:00:00 - 27.05.2019 06:00:00 (CEST)Solenzara, France (7765): Direction du vent: 21.05.2019 06:00:00 - 27.05.2019 06:00:00 (CEST)Solenzara, France (7765): reduced air pressure: 21.05.2019 06:00:00 - 27.05.2019 06:00:00 (CEST)Solenzara, France (7765): visibility: 21.05.2019 06:00:00 - 27.05.2019 06:00:00 (CEST)Solenzara, France (7765): Ensoleillement: 21.05.2019 06:00:00 - 27.05.2019 06:00:00 (CEST)Solenzara, France (7765): Quantités de précipitations: 21.05.2019 06:00:00 - 27.05.2019 06:00:00 (CEST)
Date & Time tt [°C] td [°C] tt 5cm [°C] tt -20cm [°C] ff [km/h] ff [knt] fx [km/h] fx [knt] dd ppp [hPa] vv [km] sd [min] rr [mm]
27.05.2019 06:00:00 - - - - - - - - - - - - -
27.05.2019 05:00:00 14,7 14,2 14,4 19,4 16 9 24 13 NNW 1005,5 4,8 0 1,8
27.05.2019 04:00:00 14,6 14,1 14,3 19,5 19 11 30 16 N 1005,9 4,5 0 3,2
27.05.2019 03:00:00 14,6 14,1 14,3 19,7 13 7 25 14 N 1006,0 6 0 4,4
27.05.2019 02:00:00 14,9 14,4 14,1 19,8 14 7 27 14 NNE 1006,5 8 0 7,1
27.05.2019 01:00:00 15,0 14,4 14,7 20,0 14 7 24 13 NE 1007,3 4,7 0 2,8
27.05.2019 00:00:00 15,3 14,8 15,0 20,1 11 6 26 14 N 1008,1 10 0 2,1
26.05.2019 23:00:00 15,5 15,0 15,1 20,2 19 10 28 15 N 1008,6 5 0 2,4
26.05.2019 22:00:00 15,8 15,3 15,3 20,3 20 11 32 17 N 1008,9 5 0 1,8
26.05.2019 21:00:00 16,4 15,6 15,9 20,3 16 9 32 18 N 1008,8 9 0 0,2
26.05.2019 20:00:00 16,5 15,5 16,1 20,4 18 10 28 15 NNE 1008,8 20 0 0,0
26.05.2019 19:00:00 16,7 15,7 16,5 20,4 16 9 25 14 NNE 1009,1 20 0 0,2
26.05.2019 18:00:00 16,7 15,7 16,4 20,5 12 6 18 10 NNE 1009,4 17 0 0,8
26.05.2019 17:00:00 16,7 15,7 16,8 20,5 11 6 20 11 NNE 1009,8 14 0 0,6
26.05.2019 16:00:00 16,4 15,1 16,8 20,5 13 7 21 11 N 1010,2 18 0 0,6
26.05.2019 15:00:00 16,7 15,4 16,2 20,6 13 7 23 12 N 1010,8 18 0 0,4
26.05.2019 14:00:00 16,9 15,2 16,8 20,6 14 8 19 11 N 1011,3 16 0 0,8
26.05.2019 13:00:00 16,9 14,7 16,3 20,6 10 5 18 10 N 1011,9 17 0 0,6
26.05.2019 12:00:00 16,9 14,0 16,7 20,7 10 5 17 9 NNW 1012,2 20 0 0,2
26.05.2019 11:00:00 16,3 13,8 16,1 20,7 9 5 14 8 NNW 1012,4 11 0 0,8
26.05.2019 10:00:00 16,8 13,7 16,5 20,8 8 4 17 9 ENE 1012,3 20 0 0,0
26.05.2019 09:00:00 17,6 11,4 18,1 20,9 8 4 10 5 NNE 1012,1 20 0 0,0
26.05.2019 08:00:00 16,5 11,0 14,7 21,0 6 3 11 6 W 1012,2 20 0 0,0
26.05.2019 07:00:00 15,3 10,9 13,5 21,1 7 4 10 6 WNW 1012,1 20 0 0,0
26.05.2019 06:00:00 15,9 10,9 14,2 21,2 5 3 10 5 NNW 1012,2 20 0 0,0
26.05.2019 05:00:00 16,2 12,0 14,8 21,3 6 4 10 5 W 1012,6 20 0 0,0
26.05.2019 04:00:00 17,1 11,4 14,8 21,4 5 3 12 7 W 1012,7 20 0 0,0
26.05.2019 03:00:00 16,5 9,7 15,1 21,5 8 4 15 8 SW 1013,1 20 0 0,0
26.05.2019 02:00:00 16,1 12,5 15,2 21,7 8 4 13 7 SSW 1013,6 20 0 0,0
26.05.2019 01:00:00 16,5 14,0 14,6 21,7 6 3 9 5 SSW 1014,1 20 0 0,0
26.05.2019 00:00:00 16,5 13,8 14,3 21,8 4 2 8 4 W 1014,5 20 0 0,0
25.05.2019 23:00:00 17,2 14,5 15,2 21,9 4 2 6 3 WNW 1014,8 20 0 0,0
25.05.2019 22:00:00 17,4 14,9 16,3 21,9 4 2 13 7 SW 1014,5 20 0 0,0
25.05.2019 21:00:00 17,8 16,0 17,0 21,9 9 5 22 12 S 1014,1 20 0 0,0
25.05.2019 20:00:00 18,1 15,9 18,2 21,9 14 8 24 13 S 1013,9 20 0 0,0
25.05.2019 19:00:00 18,6 15,8 20,0 21,8 16 9 24 13 S 1013,6 20 20 0,0
25.05.2019 18:00:00 19,5 15,6 22,5 21,7 12 7 23 12 S 1013,4 20 50 0,0
25.05.2019 17:00:00 19,2 14,7 23,1 21,5 13 7 19 10 SE 1013,7 20 40 0,0
25.05.2019 16:00:00 20,2 15,8 26,8 21,3 10 5 20 11 ESE 1013,9 20 60 0,0
25.05.2019 15:00:00 19,3 14,8 24,4 21,0 8 4 18 10 SE 1014,5 20 28 0,0
25.05.2019 14:00:00 19,7 15,1 27,7 20,8 14 8 22 12 ESE 1014,7 20 60 0,0
25.05.2019 13:00:00 20,4 15,4 28,6 20,6 13 7 21 11 ESE 1015,1 20 58 0,0
25.05.2019 12:00:00 20,1 14,0 33,2 20,5 11 6 21 11 ESE 1015,2 20 60 0,0
25.05.2019 11:00:00 19,7 14,3 28,8 20,4 11 6 18 10 E 1015,0 18 60 0,0
25.05.2019 10:00:00 18,7 14,4 23,9 20,5 9 5 16 9 E 1015,1 20 60 0,0
25.05.2019 09:00:00 18,0 14,1 18,2 20,6 2 1 10 5 NE 1014,9 20 7 0,0
25.05.2019 08:00:00 16,4 13,3 15,2 20,7 0 0 5 3 N 1014,7 20 0 0,0
25.05.2019 07:00:00 15,4 12,0 14,7 20,8 4 2 14 8 NW 1014,3 20 0 0,0
25.05.2019 06:00:00 15,3 12,1 12,8 20,9 8 4 13 7 W 1014,1 20 0 0,0
25.05.2019 05:00:00 14,3 11,3 12,1 21,0 8 4 12 7 W 1013,9 20 0 0,0
25.05.2019 04:00:00 14,5 11,8 12,1 21,2 8 4 13 7 W 1013,7 20 0 0,0
25.05.2019 03:00:00 15,1 12,0 12,8 21,3 9 5 14 7 W 1013,7 20 0 0,0
25.05.2019 02:00:00 15,5 12,3 13,3 21,4 7 4 14 8 W 1014,0 20 0 0,0
25.05.2019 01:00:00 15,7 13,2 13,1 21,5 6 4 10 5 W 1014,3 20 0 0,0
25.05.2019 00:00:00 16,5 14,3 13,0 21,6 0 0 7 4 N 1014,6 20 0 0,0
24.05.2019 23:00:00 17,1 14,4 15,3 21,7 6 3 10 6 NNW 1014,6 20 0 0,0
24.05.2019 22:00:00 17,3 14,2 15,1 21,7 5 3 7 4 WNW 1014,4 20 0 0,0
24.05.2019 21:00:00 17,1 13,8 15,2 21,7 0 0 14 8 N 1014,1 20 3 0,0
24.05.2019 20:00:00 18,0 14,5 18,4 21,6 10 6 15 8 SSE 1013,7 20 60 0,0
24.05.2019 19:00:00 18,8 14,7 19,7 21,5 8 4 17 9 SSE 1013,5 20 60 0,0
24.05.2019 18:00:00 19,6 15,0 24,1 21,4 11 6 18 10 SE 1013,8 20 60 0,0
24.05.2019 17:00:00 19,8 14,8 24,8 21,1 9 5 20 11 ESE 1014,1 20 60 0,0
24.05.2019 16:00:00 20,4 15,0 25,7 20,8 13 7 20 11 E 1014,6 20 58 0,0
24.05.2019 15:00:00 20,1 14,9 30,8 20,5 12 7 20 11 ESE 1014,9 20 60 0,0
24.05.2019 14:00:00 20,5 15,5 32,9 20,2 13 7 21 11 ESE 1015,2 20 60 0,0
24.05.2019 13:00:00 20,0 15,2 32,7 20,0 12 7 21 11 E 1015,6 20 60 0,0
24.05.2019 12:00:00 19,6 15,0 32,6 19,8 14 7 21 11 E 1015,6 20 60 0,0
24.05.2019 11:00:00 19,9 15,3 31,1 19,8 12 6 17 9 E 1015,8 20 60 0,0
24.05.2019 10:00:00 19,1 14,6 28,5 19,8 10 5 16 8 E 1015,9 20 60 0,0
24.05.2019 09:00:00 18,8 14,5 20,5 19,9 6 4 13 7 ENE 1015,8 20 60 0,0
24.05.2019 08:00:00 17,7 13,0 14,0 20,0 6 4 11 6 NNE 1015,7 20 60 0,0
24.05.2019 07:00:00 13,9 9,9 10,5 20,1 8 5 16 9 W 1015,6 20 43 0,0
24.05.2019 06:00:00 12,9 9,9 10,3 20,3 10 6 14 8 W 1015,6 20 0 0,0
24.05.2019 05:00:00 13,0 9,6 10,6 20,5 8 4 16 9 W 1015,5 20 0 0,0
24.05.2019 04:00:00 13,4 10,2 10,9 20,6 10 5 16 9 W 1015,6 20 0 0,0
24.05.2019 03:00:00 13,6 10,8 11,2 20,8 8 5 16 8 W 1015,8 20 0 0,0
24.05.2019 02:00:00 14,1 11,4 11,6 20,9 9 5 13 7 WNW 1015,9 20 0 0,0
24.05.2019 01:00:00 14,6 11,9 12,1 21,0 8 4 16 8 W 1016,2 20 0 0,0
24.05.2019 00:00:00 14,8 12,3 12,4 21,1 9 5 13 7 W 1016,4 20 0 0,0
23.05.2019 23:00:00 15,5 12,6 12,6 21,2 6 3 10 5 WNW 1016,6 20 0 0,0
23.05.2019 22:00:00 16,2 13,1 12,6 21,2 6 3 9 5 WNW 1016,4 20 0 0,0
23.05.2019 21:00:00 17,1 13,8 14,5 21,2 4 2 9 5 SW 1016,2 20 2 0,0
23.05.2019 20:00:00 18,1 14,2 18,3 21,2 9 5 14 7 S 1016,2 20 60 0,0
23.05.2019 19:00:00 19,0 14,0 19,6 21,1 9 5 15 8 SE 1015,9 20 60 0,0
23.05.2019 18:00:00 19,8 13,9 23,7 20,9 10 6 16 9 SE 1016,0 20 60 0,0
23.05.2019 17:00:00 19,9 13,6 24,7 20,6 11 6 20 11 ESE 1016,3 20 60 0,0
23.05.2019 16:00:00 19,6 14,0 28,3 20,4 13 7 20 11 ESE 1016,8 20 60 0,0
23.05.2019 15:00:00 20,4 15,0 29,0 20,1 11 6 22 12 ESE 1017,3 19 60 0,0
23.05.2019 14:00:00 20,1 15,1 29,1 19,9 14 7 23 12 SE 1017,5 19 60 0,0
23.05.2019 13:00:00 19,8 13,9 30,9 19,7 14 8 23 13 SE 1017,8 20 60 0,0
23.05.2019 12:00:00 20,0 14,6 28,8 19,7 15 8 21 11 E 1018,1 20 58 0,0
23.05.2019 11:00:00 19,4 14,0 20,6 19,7 10 5 15 8 E 1018,3 20 8 0,0
23.05.2019 10:00:00 18,0 13,7 19,7 19,7 5 3 13 7 E 1018,3 20 0 0,0
23.05.2019 09:00:00 18,0 13,1 20,0 19,8 9 5 14 8 SW 1017,9 20 23 0,0
23.05.2019 08:00:00 16,2 12,6 14,7 19,8 5 3 14 8 W 1017,6 20 2 0,0
23.05.2019 07:00:00 14,7 11,8 13,7 20,0 8 5 15 8 WNW 1017,4 20 0 0,0
23.05.2019 06:00:00 14,2 11,5 11,7 20,1 7 4 14 8 W 1016,9 20 0 0,0
23.05.2019 05:00:00 13,6 11,3 11,7 20,2 8 4 14 8 W 1016,7 20 0 0,0
23.05.2019 04:00:00 14,6 12,1 13,4 20,4 6 4 12 7 W 1016,8 20 0 0,0
23.05.2019 03:00:00 14,6 12,3 11,8 20,5 7 4 10 5 W 1017,1 20 0 0,0
23.05.2019 02:00:00 14,5 12,2 12,1 20,6 6 3 10 5 WNW 1017,1 20 0 0,0
23.05.2019 01:00:00 14,8 12,7 12,2 20,7 7 4 11 6 W 1016,9 20 0 0,0
23.05.2019 00:00:00 15,4 13,4 12,9 20,8 5 3 9 5 W 1016,6 20 0 0,0
22.05.2019 23:00:00 16,1 13,9 13,7 20,8 5 3 9 5 W 1016,6 20 0 0,0
22.05.2019 22:00:00 17,0 14,5 15,2 20,9 5 3 11 6 NNW 1016,3 20 0 0,0
22.05.2019 21:00:00 17,2 14,5 16,1 20,9 8 5 16 8 NNE 1015,6 20 0 0,0
22.05.2019 20:00:00 17,4 14,5 17,7 20,8 9 5 14 7 NNE 1015,1 20 2 0,0
22.05.2019 19:00:00 17,9 15,2 18,5 20,7 11 6 16 9 NNE 1015,1 20 27 0,0
22.05.2019 18:00:00 19,3 14,5 24,3 20,6 8 5 18 10 NE 1015,0 20 60 0,0
22.05.2019 17:00:00 19,9 13,6 25,0 20,4 9 5 16 9 E 1015,0 20 60 0,0
22.05.2019 16:00:00 19,7 14,9 22,9 20,1 10 5 18 10 ESE 1015,4 20 40 0,0
22.05.2019 15:00:00 18,7 14,6 22,5 19,8 15 8 26 14 ENE 1015,6 20 44 0,0
22.05.2019 14:00:00 18,7 15,0 22,3 19,5 14 8 26 14 NE 1016,0 20 44 0,0
22.05.2019 13:00:00 20,0 15,0 31,8 19,3 16 9 24 13 ENE 1016,0 20 60 0,0
22.05.2019 12:00:00 20,0 14,8 28,8 19,1 13 7 20 11 E 1015,6 20 60 0,0
22.05.2019 11:00:00 20,0 13,2 29,8 19,1 12 6 18 10 E 1015,3 20 60 0,0
22.05.2019 10:00:00 19,2 12,9 27,5 19,1 9 5 14 8 ESE 1015,3 20 60 0,0
22.05.2019 09:00:00 18,6 12,6 18,3 19,2 6 4 11 6 E 1015,4 20 60 0,0
22.05.2019 08:00:00 16,7 12,8 14,6 19,3 5 3 9 5 S 1015,1 20 54 0,0
22.05.2019 07:00:00 13,9 10,9 10,6 19,4 4 2 12 7 WNW 1015,2 20 37 0,0
22.05.2019 06:00:00 12,9 10,4 10,4 19,6 9 5 13 7 W 1014,8 20 0 0,0
22.05.2019 05:00:00 13,4 10,6 10,8 19,7 8 5 18 10 W 1014,7 20 0 0,0
22.05.2019 04:00:00 13,6 10,8 11,0 19,8 10 5 16 9 W 1014,8 20 0 0,0
22.05.2019 03:00:00 13,7 11,0 11,4 19,9 9 5 16 8 W 1015,2 20 0 0,0
22.05.2019 02:00:00 14,1 12,1 11,8 20,1 8 4 14 7 W 1015,2 20 0 0,0
22.05.2019 01:00:00 14,2 12,6 12,0 20,2 8 4 12 6 W 1015,4 20 0 0,0
22.05.2019 00:00:00 14,6 12,8 12,3 20,3 6 3 11 6 W 1015,8 20 0 0,0
21.05.2019 23:00:00 15,1 12,6 12,5 20,3 6 3 12 7 WNW 1015,6 20 0 0,0
21.05.2019 22:00:00 15,4 13,2 12,8 20,4 6 3 11 6 W 1014,9 20 0 0,0
21.05.2019 21:00:00 16,8 14,8 13,8 20,4 5 3 10 6 NNE 1014,1 20 0 0,0
21.05.2019 20:00:00 18,0 15,1 17,0 20,3 7 4 16 9 ENE 1013,6 20 52 0,0
21.05.2019 19:00:00 19,2 15,3 19,6 20,2 12 7 22 12 ENE 1013,3 20 60 0,0
21.05.2019 18:00:00 19,7 13,6 23,7 20,0 14 7 29 16 NE 1013,1 20 60 0,0
21.05.2019 17:00:00 20,1 15,3 24,1 19,8 19 10 28 15 NE 1012,8 20 60 0,0
21.05.2019 16:00:00 20,2 15,0 25,9 19,5 19 10 32 17 ENE 1012,6 20 60 0,0
21.05.2019 15:00:00 20,4 15,0 26,4 19,2 20 11 32 17 NE 1012,5 20 60 0,0
21.05.2019 14:00:00 20,4 15,4 29,6 18,9 18 10 34 19 ENE 1012,2 20 60 0,0
21.05.2019 13:00:00 20,9 15,4 31,4 18,6 25 13 39 21 E 1011,6 20 60 0,0
21.05.2019 12:00:00 22,4 12,9 30,7 18,4 17 9 42 23 NE 1011,2 20 60 0,0
21.05.2019 11:00:00 23,2 6,9 31,6 18,4 17 9 41 22 W 1011,0 20 60 0,0
21.05.2019 10:00:00 22,7 6,9 24,4 18,4 12 7 27 15 W 1010,7 20 60 0,0
21.05.2019 09:00:00 18,9 12,6 20,7 18,4 14 8 22 12 NNE 1010,3 20 60 0,0
21.05.2019 08:00:00 18,3 10,9 15,0 18,6 5 3 19 10 NNE 1010,1 20 53 0,0
21.05.2019 07:00:00 15,4 11,0 11,8 18,7 13 7 19 10 N 1009,6 20 40 0,0
21.05.2019 06:00:00 13,8 11,0 10,8 18,8 12 7 27 15 NNW 1009,3 20 0 0,0

tt = Température de l'air
td = dewpoint
tt 5cm = Température de l'air 5cm
tt -20cm = Température de l'air -20cm
ff = Vitesse du vent
fx = gusts
dd = Direction du vent
ppp = reduced air pressure
vv = visibility
sd = Ensoleillement
rr = Quantités de précipitations

stations d'obs. à proximité